Date String (YYYY-MM-DD hh:mm:ss) UTC,Instrument flags,Ambient pressure (hPa),Sample flow (lpm),Bypass flow (lpm),Sample temperature (°C),Ambient temperature (°C),ASC tube jacket temperature (°C),LED temperature (°C),Box temperature (°C),Sample RH (%),Span deviation,Mass concentration (μg/m³),Mass concentration (μg/m³),Mass concentration (μg/m³)
DateTimeUTC,F1_M11,P_M11,Q1_M11,Q2_M11,T1_M11,T2_M11,T3_M11,T4_M11,T5_M11,U1_M11,ZSPAN_M11,X2_M11,X0_M11,X1_M11
2022-03-07 08:00:00,,0830.5,4.99,0.00,22.3,22.4,00.0,31.2,24.2,07.9,0000.0,0004.09,0006.32,0003.92
2022-03-07 08:01:00,,0830.5,5.00,0.00,22.3,22.2,00.0,31.2,24.1,07.9,0000.0,0004.11,0006.34,0003.95
2022-03-07 08:02:00,,0830.4,5.01,0.00,22.3,22.0,00.0,31.2,24.0,07.9,0000.0,0004.10,0006.27,0003.97
2022-03-07 08:03:00,,0830.4,4.99,0.00,22.2,21.8,00.0,31.2,24.0,07.9,0000.0,0004.11,0006.24,0003.98
2022-03-07 08:04:00,,0830.5,4.99,0.00,22.2,21.7,00.0,31.2,23.9,07.9,0000.0,0004.05,0006.03,0003.92
2022-03-07 08:05:00,,0830.6,5.01,0.00,22.2,21.6,00.0,31.2,23.9,08.1,0000.0,0003.98,0005.57,0003.85
2022-03-07 08:06:00,,0830.3,5.00,0.00,22.2,21.5,00.0,31.2,23.8,08.1,0000.0,0003.94,0005.01,0003.82
2022-03-07 08:07:00,,0830.4,5.00,0.00,22.1,21.4,00.0,31.2,23.8,08.2,0000.0,0003.92,0004.94,0003.81
2022-03-07 08:08:00,,0830.4,4.99,0.00,22.1,21.3,00.0,31.2,23.7,08.1,0000.0,0003.90,0004.85,0003.79
2022-03-07 08:09:00,,0830.4,5.00,0.00,22.0,21.2,00.0,31.1,23.7,08.1,0000.0,0003.87,0004.83,0003.75
2022-03-07 08:10:00,,0830.4,5.00,0.00,22.0,21.2,00.0,31.1,23.7,08.2,0000.0,0003.85,0004.79,0003.73
2022-03-07 08:11:00,,0830.4,4.99,0.00,22.0,21.5,00.0,31.1,23.7,08.2,0000.0,0003.82,0004.73,0003.71
2022-03-07 08:12:00,,0830.4,5.02,0.00,22.1,22.2,00.0,31.2,23.9,08.2,0000.0,0003.80,0004.73,0003.68
2022-03-07 08:13:00,,0830.4,5.00,0.00,22.2,22.9,00.0,31.2,24.2,08.1,0000.0,0003.79,0004.73,0003.66
2022-03-07 08:14:00,,0830.4,5.00,0.00,22.4,23.2,00.0,31.2,24.3,08.1,0000.0,0003.76,0004.71,0003.63
2022-03-07 08:15:00,,0830.4,4.99,0.00,22.4,23.0,00.0,31.2,24.3,08.1,0000.0,0003.75,0004.72,0003.62
2022-03-07 08:16:00,,0830.4,5.00,0.00,22.4,22.7,00.0,31.3,24.3,08.1,0000.0,0003.75,0004.77,0003.62
2022-03-07 08:17:00,,0830.4,5.02,0.00,22.4,22.4,00.0,31.3,24.2,08.0,0000.0,0003.76,0004.82,0003.63
2022-03-07 08:18:00,,0830.4,4.99,0.00,22.4,22.2,00.0,31.3,24.2,08.0,0000.0,0003.78,0005.09,0003.63
2022-03-07 08:19:00,,0830.4,5.01,0.00,22.4,22.0,00.0,31.3,24.1,08.0,0000.0,0003.79,0005.11,0003.64
2022-03-07 08:20:00,,0830.4,5.01,0.00,22.3,21.9,00.0,31.3,24.0,08.0,0000.0,0003.80,0005.49,0003.65
2022-03-07 08:21:00,,0830.4,4.99,0.00,22.3,21.7,00.0,31.3,23.9,08.1,0000.0,0003.81,0006.56,0003.66
2022-03-07 08:22:00,,0830.4,4.99,0.00,22.2,21.6,00.0,31.3,23.9,08.1,0000.0,0003.82,0006.62,0003.66
2022-03-07 08:23:00,,0830.4,5.00,0.00,22.2,21.5,00.0,31.2,23.8,08.1,0000.0,0003.83,0006.67,0003.67
2022-03-07 08:24:00,,0830.4,5.00,0.00,22.1,21.4,00.0,31.2,23.8,08.2,0000.0,0003.84,0006.66,0003.68
2022-03-07 08:25:00,,0830.4,5.01,0.00,22.1,21.3,00.0,31.2,23.7,08.2,0000.0,0003.86,0006.69,0003.71
2022-03-07 08:26:00,,0830.4,5.00,0.00,22.0,21.2,00.0,31.2,23.7,08.2,0000.0,0003.90,0006.74,0003.74
2022-03-07 08:27:00,,0830.4,5.02,0.00,22.0,21.1,00.0,31.2,23.6,08.1,0000.0,0003.92,0006.75,0003.76
2022-03-07 08:28:00,,0830.4,5.01,0.00,22.0,21.4,00.0,31.2,23.6,08.1,0000.0,0003.93,0007.33,0003.78
2022-03-07 08:29:00,,0830.4,4.99,0.00,22.1,22.1,00.0,31.2,23.9,08.0,0000.0,0003.94,0007.24,0003.79
2022-03-07 08:30:00,,0830.4,5.00,0.00,22.2,22.8,00.0,31.2,24.1,07.9,0000.0,0003.98,0007.27,0003.83
2022-03-07 08:31:00,,0830.4,5.00,0.00,22.3,22.8,00.0,31.2,24.2,07.9,0000.0,0004.00,0007.10,0003.86
2022-03-07 08:32:00,,0830.3,5.00,0.00,22.3,22.5,00.0,31.2,24.2,07.8,0000.0,0004.01,0005.86,0003.88
2022-03-07 08:33:00,,0830.3,4.99,0.00,22.3,22.3,00.0,31.2,24.1,07.8,0000.0,0004.04,0005.95,0003.90
2022-03-07 08:34:00,,0830.4,5.01,0.00,22.3,22.1,00.0,31.2,24.0,07.8,0000.0,0004.05,0005.93,0003.91
2022-03-07 08:35:00,,0830.3,5.00,0.00,22.2,21.9,00.0,31.2,23.9,07.8,0000.0,0004.08,0006.06,0003.92
2022-03-07 08:36:00,,0830.3,5.00,0.00,22.2,21.7,00.0,31.2,23.9,07.8,0000.0,0004.09,0006.15,0003.92
2022-03-07 08:37:00,,0830.4,5.01,0.00,22.2,21.6,00.0,31.2,23.8,07.8,0000.0,0004.09,0006.14,0003.92
2022-03-07 08:38:00,,0830.3,5.00,0.00,22.1,21.4,00.0,31.2,23.8,07.8,0000.0,0004.10,0006.16,0003.92
2022-03-07 08:39:00,,0830.3,4.99,0.00,22.1,21.3,00.0,31.2,23.7,07.8,0000.0,0004.10,0005.80,0003.93
2022-03-07 08:40:00,,0830.2,5.00,0.00,22.0,21.2,00.0,31.2,23.7,07.8,0000.0,0004.12,0005.65,0003.93
2022-03-07 08:41:00,,0830.3,5.00,0.00,22.0,21.1,00.0,31.1,23.6,07.8,0000.0,0004.10,0005.59,0003.92
2022-03-07 08:42:00,,0830.3,4.99,0.00,22.0,21.5,00.0,31.1,23.6,07.7,0000.0,0004.11,0005.69,0003.90
2022-03-07 08:43:00,,0830.4,5.00,0.00,22.1,22.2,00.0,31.2,23.9,07.7,0000.0,0004.09,0005.65,0003.88
2022-03-07 08:44:00,,0830.4,5.00,0.00,22.2,22.9,00.0,31.2,24.2,07.6,0000.0,0004.08,0005.56,0003.88
2022-03-07 08:45:00,,0830.3,5.00,0.00,22.3,22.8,00.0,31.2,24.2,07.6,0000.0,0004.07,0005.56,0003.87
2022-03-07 08:46:00,,0830.3,4.99,0.00,22.3,22.5,00.0,31.2,24.2,07.5,0000.0,0004.06,0006.12,0003.85
2022-03-07 08:47:00,,0830.3,4.99,0.00,22.3,22.2,00.0,31.2,24.1,07.5,0000.0,0004.06,0006.38,0003.84
2022-03-07 08:48:00,,0830.3,5.01,0.00,22.2,22.0,00.0,31.2,24.0,07.5,0000.0,0004.03,0006.45,0003.81
2022-03-07 08:49:00,,0830.2,5.00,0.00,22.2,21.8,00.0,31.2,23.9,07.5,0000.0,0004.00,0007.81,0003.79
2022-03-07 08:50:00,,0830.2,5.00,0.00,22.2,21.6,00.0,31.2,23.8,07.5,0000.0,0003.99,0008.07,0003.76
2022-03-07 08:51:00,,0830.2,5.00,0.00,22.1,21.5,00.0,31.2,23.8,07.6,0000.0,0003.95,0008.02,0003.74
2022-03-07 08:52:00,,0830.2,5.00,0.00,22.1,21.4,00.0,31.2,23.7,07.6,0000.0,0003.92,0007.96,0003.70
2022-03-07 08:53:00,,0830.2,4.99,0.00,22.0,21.3,00.0,31.1,23.6,07.6,0000.0,0003.90,0007.96,0003.69
2022-03-07 08:54:00,,0830.2,5.01,0.00,22.0,21.2,00.0,31.1,23.6,07.6,0000.0,0003.87,0007.91,0003.66
2022-03-07 08:55:00,,0830.2,4.98,0.00,22.0,21.3,00.0,31.1,23.6,07.6,0000.0,0003.84,0007.88,0003.64
2022-03-07 08:56:00,,0830.1,5.01,0.00,22.1,22.0,00.0,31.2,23.8,07.6,0000.0,0003.80,0007.82,0003.61
2022-03-07 08:57:00,,0830.1,5.00,0.00,22.2,22.7,00.0,31.2,24.1,07.5,0000.0,0003.78,0007.48,0003.61
2022-03-07 08:58:00,,0830.2,5.01,0.00,22.3,22.8,00.0,31.2,24.2,07.4,0000.0,0003.73,0007.12,0003.58
2022-03-07 08:59:00,,0830.1,5.00,0.00,22.3,22.6,00.0,31.2,24.2,07.4,0000.0,0003.72,0007.13,0003.57
